CW5053 Weather Reports


Display with metric or nautical units.
time (UTC)temp
F
wind
direction
speed
MPH
gust
MPH
rain 1hr
in
rain 24hr
in
rain mn
in
humidity
%
barometer
mb
20260505062038 54 185 0.0 4.0 0.00 0.00 0.00 86 1013.0
20260505061745 55 185 1.0 4.0 0.00 0.00 0.00 86 1013.6
20260505061602 55 185 1.0 4.0 0.00 0.00 0.00 86 1013.0
20260505061225 55 178 1.0 3.0 0.00 0.00 0.00 86 1013.5
20260505061024 55 217 1.0 3.0 0.00 0.00 0.00 86 1013.0
20260505060734 56 191 2.0 4.0 0.00 0.00 0.00 85 1013.5
20260505060506 55 196 2.0 4.0 0.00 0.00 0.00 85 1012.9
20260505060215 56 207 2.0 4.0 0.00 0.00 0.00 85 1013.3
20260505060048 55 178 3.0 4.0 0.00 0.00 0.00 85 1012.8
20260505055716 56 192 2.0 4.0 0.00 0.00 0.00 85 1013.3
20260505055530 56 178 1.0 4.0 0.00 0.00 0.00 85 1012.8
20260505055224 56 190 1.0 4.0 0.00 0.00 0.00 84 1013.3
20260505055013 56 172 1.0 3.0 0.00 0.00 0.00 84 1012.8
20260505054725 56 159 2.0 3.0 0.00 0.00 0.00 84 1013.3
20260505054538 56 163 1.0 4.0 0.00 0.00 0.00 84 1012.7
20260505054233 57 145 1.0 3.0 0.00 0.00 0.00 84 1013.4
20260505054012 56 145 1.0 3.0 0.00 0.00 0.00 84 1012.7
20260505053711 57 159 1.0 3.0 0.00 0.00 0.00 83 1013.3
20260505053555 57 159 1.0 3.0 0.00 0.00 0.00 83 1012.8
20260505053213 57 150 1.0 3.0 0.00 0.00 0.00 83 1013.3
20260505053041 57 150 1.0 3.0 0.00 0.00 0.00 83 1012.7
20260505052714 58 190 1.0 3.0 0.00 0.00 0.00 82 1013.3
20260505052517 57 215 1.0 3.0 0.00 0.00 0.00 82 1012.8
20260505052222 58 343 0.0 2.0 0.00 0.00 0.00 82 1013.3
20260505052100 58 342 0.0 2.0 0.00 0.00 0.00 82 1012.7
20260505051724 58 342 1.0 2.0 0.00 0.00 0.00 81 1013.3
20260505051543 58 342 1.0 2.0 0.00 0.00 0.00 81 1012.7
20260505051232 59 327 1.0 2.0 0.00 0.00 0.00 80 1013.2
20260505051002 58 327 0.0 2.0 0.00 0.00 0.00 80 1012.6
20260505050713 59 327 1.0 2.0 0.00 0.00 0.00 80 1013.1
20260505050545 59 327 0.0 2.0 0.00 0.00 0.00 79 1012.5
20260505050214 59 322 1.0 2.0 0.00 0.00 0.00 79 1013.0
20260505041713 63 225 1.0 4.0 0.00 0.00 0.00 72 1012.8
20260505041544 62 225 1.0 4.0 0.00 0.00 0.00 72 1012.2
20260505041243 63 243 2.0 6.0 0.00 0.00 0.00 71 1012.7
20260505041006 63 247 2.0 6.0 0.00 0.00 0.00 71 1012.0
20260505040739 63 234 3.0 6.0 0.00 0.00 0.00 71 1012.6
20260505040528 63 335 2.0 5.0 0.00 0.00 0.00 71 1012.0
20260505040248 64 320 3.0 6.0 0.00 0.00 0.00 71 1012.5
20260505040052 63 292 2.0 8.0 0.00 0.00 0.00 71 1011.9
20260505035728 64 316 2.0 11.0 0.00 0.00 0.00 71 1012.4
20260505035533 63 350 2.0 11.0 0.00 0.00 0.00 71 1011.8
20260505035233 64 311 5.0 11.0 0.00 0.00 0.00 71 1012.4
20260505035011 63 341 3.0 8.0 0.00 0.00 0.00 71 1011.7
20260505034714 64 327 2.0 5.0 0.00 0.00 0.00 71 1012.4
20260505034555 63 329 1.0 3.0 0.00 0.00 0.00 72 1011.7
20260505034236 64 15 1.0 3.0 0.00 0.00 0.00 71 1012.2
20260505034015 64 15 0.0 3.0 0.00 0.00 0.00 71 1011.5
20260505033724 65 15 2.0 3.0 0.00 0.00 0.00 70 1012.2
20260505033559 64 12 0.0 2.0 0.00 0.00 0.00 69 1011.5
20260505033231 65 315 0.0 3.0 0.00 0.00 0.00 69 1012.1
20260505033019 65 315 0.0 4.0 0.00 0.00 0.00 69 1011.4
20260505032713 66 315 1.0 4.0 0.00 0.00 0.00 68 1012.1
20260505032605 65 315 1.0 4.0 0.00 0.00 0.00 68 1011.4
20260505032214 66 323 2.0 5.0 0.00 0.00 0.00 67 1012.0
20260505032043 66 338 2.0 8.0 0.00 0.00 0.00 67 1011.3
20260505031715 66 331 3.0 8.0 0.00 0.00 0.00 67 1011.9
20260505031536 66 334 2.0 8.0 0.00 0.00 0.00 66 1011.2
20260505031224 67 277 4.0 8.0 0.00 0.00 0.00 66 1012.0
20260505031011 67 315 1.0 6.0 0.00 0.00 0.00 65 1011.3
20260505030725 67 280 3.0 7.0 0.00 0.00 0.00 65 1012.0
20260505030554 67 314 2.0 7.0 0.00 0.00 0.00 65 1011.2
20260505030254 68 332 3.0 8.0 0.00 0.00 0.00 65 1011.9
20260505030011 67 284 2.0 8.0 0.00 0.00 0.00 65 1011.2
20260505025715 68 285 4.0 8.0 0.00 0.00 0.00 65 1011.8
20260505025555 68 262 3.0 8.0 0.00 0.00 0.00 65 1011.1
20260505025216 69 273 2.0 7.0 0.00 0.00 0.00 65 1011.7
20260505025036 68 320 1.0 7.0 0.00 0.00 0.00 66 1011.0
20260505024718 69 270 3.0 9.0 0.00 0.00 0.00 65 1011.6
20260505024517 69 257 2.0 9.0 0.00 0.00 0.00 65 1010.9
20260505024246 70 305 3.0 9.0 0.00 0.00 0.00 65 1011.6
20260505024040 69 312 3.0 9.0 0.00 0.00 0.00 65 1010.8
20260505023734 70 268 2.0 7.0 0.00 0.00 0.00 66 1011.5
20260505023521 70 305 2.0 5.0 0.00 0.00 0.00 65 1010.8
20260505023235 71 279 2.0 6.0 0.00 0.00 0.00 65 1011.4
20260505023050 70 15 2.0 6.0 0.00 0.00 0.00 65 1010.7
20260505022741 71 15 2.0 6.0 0.00 0.00 0.00 65 1011.5
20260505022503 71 15 3.0 6.0 0.00 0.00 0.00 64 1010.7
20260505022222 72 15 2.0 6.0 0.00 0.00 0.00 63 1011.5
20260505022049 71 14 2.0 6.0 0.00 0.00 0.00 63 1010.8
20260505021723 72 14 2.0 8.0 0.00 0.00 0.00 63 1011.6
20260505021533 71 15 2.0 8.0 0.00 0.00 0.00 63 1010.8
20260505021232 72 13 2.0 9.0 0.00 0.00 0.00 63 1011.5
20260505021012 71 15 3.0 9.0 0.00 0.00 0.00 62 1010.8
20260505020713 72 15 2.0 9.0 0.00 0.00 0.00 63 1011.5
20260505020553 72 15 3.0 9.0 0.00 0.00 0.00 64 1010.8
20260505020214 72 15 2.0 6.0 0.00 0.00 0.00 64 1011.5
20260505020038 72 15 2.0 8.0 0.00 0.00 0.00 64 1010.8
20260505015716 72 14 3.0 8.0 0.00 0.00 0.00 64 1011.6
20260505015516 72 14 3.0 8.0 0.00 0.00 0.00 64 1010.9
20260505015224 72 259 5.0 8.0 0.00 0.00 0.00 64 1011.6
20260505015059 72 232 4.0 7.0 0.00 0.00 0.00 64 1010.8
20260505014726 73 202 4.0 7.0 0.00 0.00 0.00 64 1011.5
20260505014542 73 271 2.0 8.0 0.00 0.00 0.00 63 1010.8
20260505014234 73 13 2.0 8.0 0.00 0.00 0.00 62 1011.5
20260505014023 73 14 1.0 8.0 0.00 0.00 0.00 63 1010.8
20260505013716 73 15 3.0 8.0 0.00 0.00 0.00 64 1011.7
20260505013503 72 253 2.0 7.0 0.00 0.00 0.00 63 1010.9
20260505013217 73 234 4.0 7.0 0.00 0.00 0.00 64 1011.6
20260505013047 72 219 4.0 8.0 0.00 0.00 0.00 62 1010.8
20260505012719 73 14 3.0 7.0 0.00 0.00 0.00 63 1011.6
20260505012529 72 239 3.0 7.0 0.00 0.00 0.00 63 1010.9
20260505012228 73 14 2.0 8.0 0.00 0.00 0.00 63 1011.7
20260505012010 72 14 2.0 8.0 0.00 0.00 0.00 62 1010.9
20260505011729 73 14 5.0 9.0 0.00 0.00 0.00 63 1011.7
20260505011554 72 217 5.0 9.0 0.00 0.00 0.00 66 1010.9
20260505011257 73 13 6.0 10.0 0.00 0.00 0.00 64 1011.7
20260505011014 72 252 3.0 10.0 0.00 0.00 0.00 64 1010.9
20260505010738 73 13 3.0 10.0 0.00 0.00 0.00 65 1011.7
20260505010539 72 11 5.0 10.0 0.00 0.00 0.00 64 1011.0
20260505010216 73 12 4.0 9.0 0.00 0.00 0.00 65 1011.7
20260505010026 72 15 4.0 9.0 0.00 0.00 0.00 62 1011.0
20260505005724 73 253 5.0 9.0 0.00 0.00 0.00 63 1011.8
20260505005559 72 12 5.0 9.0 0.00 0.00 0.00 64 1011.1
20260505005231 73 210 5.0 8.0 0.00 0.00 0.00 65 1011.7
20260505005019 72 232 3.0 8.0 0.00 0.00 0.00 64 1011.0
20260505004711 73 220 3.0 8.0 0.00 0.00 0.00 66 1011.8
20260505004600 72 240 3.0 8.0 0.00 0.00 0.00 65 1011.0
20260505004212 72 205 5.0 9.0 0.00 0.00 0.00 65 1011.8
20260505004042 72 13 3.0 9.0 0.00 0.00 0.00 67 1011.1
20260505003720 72 234 5.0 11.0 0.00 0.00 0.00 65 1011.8
20260505003502 72 13 4.0 11.0 0.00 0.00 0.00 66 1011.1
20260505003221 72 223 4.0 11.0 0.00 0.00 0.00 65 1011.8
20260505003048 72 13 4.0 11.0 0.00 0.00 0.00 64 1011.1
20260505002723 72 13 4.0 10.0 0.00 0.00 0.00 66 1012.0
20260505002528 72 12 4.0 12.0 0.00 0.00 0.00 67 1011.2
20260505002231 72 11 6.0 12.0 0.00 0.00 0.00 66 1012.0
20260505002009 71 174 6.0 12.0 0.00 0.00 0.00 65 1011.3
20260505001713 72 12 6.0 12.0 0.00 0.00 0.00 68 1012.0
20260505001553 71 13 6.0 9.0 0.00 0.00 0.00 65 1011.2
20260505001215 72 188 6.0 12.0 0.00 0.00 0.00 65 1012.1
20260505001034 72 201 5.0 12.0 0.00 0.00 0.00 64 1011.3
20260505000743 72 14 6.0 12.0 0.00 0.00 0.00 66 1012.1
20260505000556 72 232 7.0 12.0 0.00 0.00 0.00 65 1011.3
20260505000251 72 228 5.0 9.0 0.00 0.00 0.00 68 1012.1
20260505000032 71 226 4.0 9.0 0.00 0.00 0.00 67 1011.3
20260504235711 72 208 6.0 9.0 0.00 0.00 0.00 65 1012.1
20260504235601 71 11 6.0 9.0 0.00 0.00 0.00 65 1011.4
20260504235212 72 191 4.0 10.0 0.00 0.00 0.00 68 1012.2
20260504235045 71 200 3.0 10.0 0.00 0.00 0.00 67 1011.4
20260504234713 72 223 5.0 10.0 0.00 0.00 0.00 66 1012.3
20260504234524 71 158 5.0 10.0 0.00 0.00 0.00 67 1011.4
20260504234222 72 209 5.0 10.0 0.00 0.00 0.00 68 1012.2
20260504234004 71 144 5.0 10.0 0.00 0.00 0.00 66 1011.4
20260504233743 72 220 6.0 9.0 0.00 0.00 0.00 66 1012.1
20260504233527 71 242 4.0 9.0 0.00 0.00 0.00 66 1011.4
20260504233231 72 227 4.0 9.0 0.00 0.00 0.00 67 1012.2
20260504233052 71 227 5.0 9.0 0.00 0.00 0.00 68 1011.3
20260504232711 71 188 4.0 11.0 0.00 0.00 0.00 67 1012.2
20260504232531 71 209 5.0 11.0 0.00 0.00 0.00 66 1011.4
20260504232213 71 200 3.0 11.0 0.00 0.00 0.00 67 1012.3
20260504232012 71 219 6.0 11.0 0.00 0.00 0.00 66 1011.4
20260504231741 71 360 5.0 10.0 0.00 0.00 0.00 68 1012.2
20260504231542 71 11 3.0 9.0 0.00 0.00 0.00 66 1011.5
20260504231229 71 190 5.0 9.0 0.00 0.00 0.00 68 1012.4
20260504231015 70 202 5.0 8.0 0.00 0.00 0.00 66 1011.4
20260504230729 71 202 5.0 8.0 0.00 0.00 0.00 67 1012.3
20260504230559 70 213 5.0 9.0 0.00 0.00 0.00 69 1011.5
20260504230231 70 215 6.0 9.0 0.00 0.00 0.00 68 1012.4
20260504230034 70 237 3.0 9.0 0.00 0.00 0.00 67 1011.5
20260504225718 70 214 5.0 9.0 0.00 0.00 0.00 67 1012.4
20260504225502 70 132 2.0 8.0 0.00 0.00 0.00 65 1011.5
20260504225219 71 193 6.0 8.0 0.00 0.00 0.00 68 1012.5
20260504225044 70 221 5.0 8.0 0.00 0.00 0.00 65 1011.6
20260504224726 70 209 3.0 8.0 0.00 0.00 0.00 68 1012.6
20260504224524 70 244 2.0 8.0 0.00 0.00 0.00 68 1011.8
20260504224228 70 248 4.0 8.0 0.00 0.00 0.00 66 1012.5
20260504224059 70 207 3.0 10.0 0.00 0.00 0.00 68 1011.8
20260504223723 70 158 4.0 10.0 0.00 0.00 0.00 67 1012.7
20260504223528 69 243 2.0 10.0 0.00 0.00 0.00 67 1011.9
20260504223103 69 12 4.0 9.0 0.00 0.00 0.00 67 1012.0
20260504222726 70 205 6.0 9.0 0.00 0.00 0.00 66 1012.8
20260504222536 69 255 6.0 11.0 0.00 0.00 0.00 68 1012.0
20260504222012 69 227 3.0 11.0 0.00 0.00 0.00 67 1012.1
20260504221808 69 218 5.0 11.0 0.00 0.00 0.00 69 1012.9
20260504221507 69 178 4.0 9.0 0.00 0.00 0.00 67 1012.1
20260504221326 69 13 327.0 327.0 0.00 0.00 0.00 70 1012.1
20260504221033 68 181 4.0 8.0 0.00 0.00 0.00 70 1012.1
20260504220713 69 236 3.0 8.0 0.00 0.00 0.00 70 1012.9
20260504220515 68 188 3.0 8.0 0.00 0.00 0.00 69 1012.1
20260504220216 69 177 5.0 11.0 0.00 0.00 0.00 69 1013.0
20260504220058 68 188 4.0 11.0 0.00 0.00 0.00 69 1012.2
20260504215712 69 198 7.0 11.0 0.00 0.00 0.00 69 1013.1
20260504215548 68 11 7.0 11.0 0.00 0.00 0.00 68 1012.2
20260504215239 69 138 4.0 0.0 0.00 0.00 0.00 71 1012.8
20260504215023 68 247 4.0 8.0 0.00 0.00 0.00 71 1012.3
20260504214508 68 201 3.0 11.0 0.00 0.00 0.00 68 1012.3
20260504214218 69 201 5.0 11.0 0.00 0.00 0.00 71 1013.2
20260504214049 68 206 5.0 11.0 0.00 0.00 0.00 72 1012.5
20260504213713 68 117 5.0 11.0 0.00 0.00 0.00 70 1013.2
20260504213521 68 13 3.0 8.0 0.00 0.00 0.00 73 1012.4
20260504213014 67 268 2.0 9.0 0.00 0.00 0.00 70 1012.5
20260504212601 67 157 5.0 9.0 0.00 0.00 0.00 72 1012.3
20260504212214 67 288 3.0 10.0 0.00 0.00 0.00 71 1013.3
20260504212042 67 227 4.0 10.0 0.00 0.00 0.00 70 1012.5
20260504211839 67 254 4.0 9.0 0.00 0.00 0.00 73 1013.4
20260504211506 66 253 2.0 9.0 0.00 0.00 0.00 70 1012.6
20260504211212 67 261 5.0 9.0 0.00 0.00 0.00 71 1013.6
20260504211049 66 227 6.0 9.0 0.00 0.00 0.00 69 1012.7
20260504210755 67 221 6.0 8.0 0.00 0.00 0.00 73 1013.6
20260504210509 66 174 5.0 8.0 0.00 0.00 0.00 74 1012.8
20260504210216 66 227 2.0 9.0 0.00 0.00 0.00 75 1013.7
20260504210050 66 329 2.0 9.0 0.00 0.00 0.00 72 1012.8
20260504205714 66 263 3.0 9.0 0.00 0.00 0.00 76 1013.8
20260504205531 65 257 2.0 9.0 0.00 0.00 0.00 75 1013.0
20260504205240 66 234 6.0 10.0 0.00 0.00 0.00 73 1013.9
20260504205043 65 218 4.0 10.0 0.00 0.00 0.00 74 1013.0
20260504204734 65 237 5.0 10.0 0.00 0.00 0.00 74 1013.9
20260504204525 65 228 5.0 11.0 0.00 0.00 0.00 75 1013.0
20260504204018 65 169 3.0 11.0 0.00 0.00 0.00 77 1013.1
20260504203713 65 252 5.0 11.0 0.00 0.00 0.00 76 1014.0
20260504203508 64 209 6.0 11.0 0.00 0.00 0.00 74 1013.1
20260504203223 65 227 6.0 10.0 0.00 0.00 0.00 75 1014.0
20260504203053 64 217 3.0 10.0 0.00 0.00 0.00 76 1013.1
20260504202722 65 251 4.0 10.0 0.00 0.00 0.00 75 1013.9
20260504202527 64 215 4.0 8.0 0.00 0.00 0.00 74 1013.1
20260504202222 65 229 4.0 9.0 0.00 0.00 0.00 75 1014.1
20260504202001 64 228 5.0 9.0 0.00 0.00 0.00 78 1013.2
20260504201805 64 207 5.0 9.0 0.00 0.00 0.00 78 1014.3
20260504201534 63 213 4.0 8.0 0.00 0.00 0.00 77 1013.4
20260504201011 63 196 6.0 8.0 0.00 0.00 0.00 76 1013.4
20260504200718 64 221 3.0 8.0 0.00 0.00 0.00 79 1014.3
20260504200552 63 251 3.0 8.0 0.00 0.00 0.00 76 1013.4
20260504200220 63 231 5.0 9.0 0.00 0.00 0.00 77 1014.3
20260504200033 63 207 4.0 9.0 0.00 0.00 0.00 79 1013.5
20260504195726 63 223 6.0 10.0 0.00 0.00 0.00 77 1014.4
20260504195509 63 228 5.0 10.0 0.00 0.00 0.00 80 1013.5
20260504195224 63 205 7.0 10.0 0.00 0.00 0.00 79 1014.5
20260504195030 63 215 7.0 10.0 0.00 0.00 0.00 77 1013.6
20260504194725 63 212 5.0 10.0 0.00 0.00 0.00 78 1014.5
20260504194507 63 269 4.0 10.0 0.00 0.00 0.00 78 1013.5
20260504194225 63 221 2.0 10.0 0.00 0.00 0.00 81 1014.5
20260504194053 63 251 3.0 10.0 0.00 0.00 0.00 81 1013.6
20260504193733 63 220 4.0 9.0 0.00 0.00 0.00 78 1014.5
20260504193531 62 285 5.0 9.0 0.00 0.00 0.00 80 1013.6
20260504193235 62 223 5.0 11.0 0.00 0.00 0.00 80 1014.5
20260504193048 62 246 5.0 11.0 0.00 0.00 0.00 80 1013.5
20260504192520 62 229 5.0 11.0 0.00 0.00 0.00 79 1013.6
20260504192229 62 215 8.0 11.0 0.00 0.00 0.00 79 1014.4
20260504192058 62 210 6.0 9.0 0.00 0.00 0.00 81 1013.5
20260504191755 62 239 7.0 9.0 0.00 0.00 0.00 80 1014.6
20260504191602 62 200 6.0 10.0 0.00 0.00 0.00 80 1013.7
20260504191217 62 197 5.0 10.0 0.00 0.00 0.00 81 1014.5
20260504191044 61 228 4.0 10.0 0.00 0.00 0.00 81 1013.6
20260504190719 62 246 7.0 11.0 0.00 0.00 0.00 79 1014.5
20260504190522 61 211 4.0 10.0 0.00 0.00 0.00 79 1013.6
20260504190221 62 164 5.0 10.0 0.00 0.00 0.00 79 1014.6
20260504190057 61 201 5.0 10.0 0.00 0.00 0.00 79 1013.6
20260504185716 61 188 4.0 10.0 0.00 0.00 0.00 80 1014.6
20260504185537 61 223 4.0 10.0 0.00 0.00 0.00 79 1013.7
20260504185228 61 223 327.0 327.0 0.00 0.00 0.00 80 1014.3
20260504185020 60 207 5.0 12.0 0.00 0.00 0.00 79 1013.7
20260504184819 61 232 7.0 12.0 0.00 0.00 0.00 80 1014.6
20260504184519 61 242 5.0 10.0 0.00 0.00 0.00 81 1013.7
20260504184215 61 209 6.0 11.0 0.00 0.00 0.00 81 1014.7
20260504184102 60 167 6.0 10.0 0.00 0.00 0.00 80 1013.7
20260504183540 60 205 4.0 10.0 0.00 0.00 0.00 81 1013.7
20260504183241 60 189 5.0 10.0 0.00 0.00 0.00 81 1014.6
20260504183102 60 235 4.0 11.0 0.00 0.00 0.00 81 1013.6
20260504182722 61 232 7.0 11.0 0.00 0.00 0.00 81 1014.6
20260504182542 60 232 6.0 11.0 0.00 0.00 0.00 80 1013.7
20260504182029 60 223 4.0 10.0 0.00 0.00 0.00 82 1013.7
20260504181735 60 236 6.0 0.0 0.00 0.00 0.00 81 1014.4
20260504181551 60 238 5.0 12.0 0.00 0.00 0.00 82 1013.7
20260504181210 60 171 7.0 12.0 0.00 0.00 0.00 80 1014.6
20260504181033 59 239 7.0 12.0 0.00 0.00 0.00 81 1013.7
20260504180720 60 243 327.0 327.0 0.00 0.00 0.00 81 1014.4
20260504180608 59 243 6.0 10.0 0.00 0.00 0.00 82 1013.7
20260504175758 60 224 6.0 0.0 0.00 0.00 0.00 81 1013.6
20260504175555 59 179 4.0 10.0 0.00 0.00 0.00 83 1013.7
20260504175211 59 225 6.0 10.0 0.00 0.00 0.00 82 1014.6
20260504175042 59 209 5.0 10.0 0.00 0.00 0.00 80 1013.6
20260504174805 59 143 6.0 11.0 0.00 0.00 0.00 81 1014.6
20260504174546 59 204 7.0 11.0 0.00 0.00 0.00 80 1013.7
20260504174218 59 204 7.0 10.0 0.00 0.00 0.00 83 1014.6
20260504174025 59 234 5.0 10.0 0.00 0.00 0.00 81 1013.6
20260504173513 59 227 6.0 12.0 0.00 0.00 0.00 82 1013.7
20260504173220 59 194 6.0 12.0 0.00 0.00 0.00 81 1014.6
20260504173053 59 202 8.0 12.0 0.00 0.00 0.00 82 1013.6
20260504172723 59 202 7.0 10.0 0.00 0.00 0.00 81 1014.6
20260504172533 59 187 5.0 10.0 0.00 0.00 0.00 83 1013.6
20260504172227 59 245 5.0 11.0 0.00 0.00 0.00 82 1014.6
20260504172014 58 234 6.0 11.0 0.00 0.00 0.00 82 1013.6
20260504171724 59 215 6.0 11.0 0.00 0.00 0.00 82 1014.5
20260504171213 59 229 7.0 11.0 0.00 0.00 0.00 81 1014.5
20260504171044 58 221 8.0 12.0 0.00 0.00 0.00 82 1013.6
20260504170714 59 229 8.0 12.0 0.00 0.00 0.00 81 1014.5
20260504170522 59 235 7.0 12.0 0.00 0.00 0.00 80 1013.5
20260504160251 58 192 8.0 12.0 0.00 0.00 0.00 81 1014.3
20260504151044 57 232 5.0 9.0 0.00 0.00 0.00 83 1013.0
20260504150633 56 153 5.0 9.0 0.00 0.00 0.00 84 1013.0
20260504150233 57 181 5.0 9.0 0.00 0.00 0.00 84 1013.9
20260504141216 55 173 3.0 9.0 0.00 0.00 0.00 85 1013.4
20260504141028 55 173 4.0 9.0 0.00 0.00 0.00 85 1012.4
20260504140724 55 183 4.0 9.0 0.00 0.00 0.00 85 1013.3
20260504140505 55 153 5.0 9.0 0.00 0.00 0.00 85 1012.4
20260504140221 55 195 4.0 9.0 0.00 0.00 0.00 85 1013.3
20260504130821 56 182 2.0 3.0 0.00 0.00 0.00 82 1012.2
20260504130511 55 182 1.0 3.0 0.00 0.00 0.00 82 1011.3
20260504130221 56 176 1.0 3.0 0.00 0.00 0.00 81 1012.1
20260504120220 58 208 2.0 5.0 0.00 0.00 0.00 76 1011.2
20260504110716 61 227 1.0 4.0 0.00 0.00 0.00 70 1010.7
20260504110516 60 270 0.0 4.0 0.00 0.00 0.00 70 1009.8
20260504100501 61 53 1.0 2.0 0.00 0.00 0.00 72 1009.4
20260504100217 61 53 1.0 2.0 0.00 0.00 0.00 72 1010.2
20260504081720 61 56 2.0 5.0 0.00 0.00 0.00 69 1009.8
20260504081604 61 55 2.0 5.0 0.00 0.00 0.00 69 1008.7
20260504081241 60 55 3.0 5.0 0.00 0.00 0.00 72 1009.8
20260504081024 60 51 3.0 5.0 0.00 0.00 0.00 75 1008.8
20260504080506 61 73 2.0 3.0 0.00 0.00 0.00 74 1008.8
20260504080232 61 192 2.0 4.0 0.00 0.00 0.00 74 1009.8
20260504070217 69 26 2.0 4.0 0.00 0.00 0.00 55 1009.5